(261116) = 2005 TQ5

Discovered at Catalina on 2005-10-01 by CSS.

Orbit

Orbit type: Main Belt

Note: WebGL enabled browser required.

epoch2024-03-31.0
epoch JD2460400.5
perihelion date2023-04-11.78896
perihelion JD2460046.28896
argument of perihelion (°)124.64374
ascending node (°)314.22199
inclination (°)6.83214
eccentricity0.1763661
perihelion distance (AU)2.1621044
Tisserand w.r.t. Jupiter3.4
ΔV w.r.t. Earth (km/sec)9.5
semimajor axis (AU)2.6250795
mean anomaly (°)82.08282
mean daily motion (°/day)0.23173420
aphelion distance (AU)3.088
period (years)4.25
P-vector [x]0.18892215
P-vector [y]0.85754409
P-vector [z]0.47846270
Q-vector [x]-0.97828443
Q-vector [y]0.20665703
Q-vector [z]0.01588856
absolute magnitude16.67
phase slope0.15
uncertainty0
referenceMPEC 2024-E179
observations used529
oppositions14
arc length (days)8185
first opposition used2001
last opposition used2024
residual rms (arc-secs)0.68
perturbers coarse indicatorM-v
perturbers precise indicator003Ek
first observation date used2001-10-14.0
last observation date used2024-03-12.0
computer nameMPCLINUX
JD of orbit computation2456581.745431
perihelion JD uncertainty (days)1.7669E-04
argument of perihelion uncertainty (°)5.8940E-05
ascending node uncertainty (°)4.3123E-05
inclination uncertainty (°)8.1411E-06
eccentricity uncertainty 4.8252E-08
perihelion distance uncertainty (AU)1.1612E-07
Minimum Orbit Intersection Distances (in AU)
for orbit epoch: 2460400.5, reference: E2024-G95
Mercury1.85476
Venus1.44653
Earth1.18675
Mars0.59276
Jupiter2.16939
Saturn6.85172
Uranus15.7801
Neptune27.2993

Observations

538 total observations over interval: 2001 10 14.34528 – 2024 03 12.375647
These data are available for download (format description).

Date (UT) J2000 RA J2000 Dec Magn Location Ref
2001 10 14.34528 04 25 50.83 +32 26 08.6 20.5   704 – Lincoln Laboratory ETS, New Mexico MPS 181118
2001 10 14.36102 04 25 50.71 +32 26 12.3 20.0   704 – Lincoln Laboratory ETS, New Mexico MPS 181118
2001 10 14.37679 04 25 50.78 +32 26 16.0 19.9   704 – Lincoln Laboratory ETS, New Mexico MPS 181118
2001 10 14.39255 04 25 50.84 +32 26 20.6 20.0   704 – Lincoln Laboratory ETS, New Mexico MPS 181118
2001 11 11.29164 04 13 10.40 +33 13 09.4 19.2   704 – Lincoln Laboratory ETS, New Mexico MPS 181118
2001 11 11.30604 04 13 09.61 +33 13 08.1 19.5   704 – Lincoln Laboratory ETS, New Mexico MPS 181118
2001 11 11.32043 04 13 08.84 +33 13 07.9 19.4   704 – Lincoln Laboratory ETS, New Mexico MPS 181118
2001 11 11.33483 04 13 08.00 +33 13 06.8 19.1   704 – Lincoln Laboratory ETS, New Mexico MPS 181118
2001 11 11.34923 04 13 07.21 +33 13 06.5 19.5   704 – Lincoln Laboratory ETS, New Mexico MPS 181118
2001 12 09.23885 03 45 34.29 +31 24 55.7 18.9   704 – Lincoln Laboratory ETS, New Mexico MPS 181118
2001 12 09.26879 03 45 32.82 +31 24 44.8 19.5   704 – Lincoln Laboratory ETS, New Mexico MPS 181118
2001 12 09.28378 03 45 31.96 +31 24 39.5 19.3   704 – Lincoln Laboratory ETS, New Mexico MPS 181118
2001 12 09.29875 03 45 31.18 +31 24 33.8 19.1   704 – Lincoln Laboratory ETS, New Mexico MPS 181118
2001 12 22.21465 03 37 01.86 +30 01 25.8 19.3   704 – Lincoln Laboratory ETS, New Mexico MPS 181118
2001 12 22.22970 03 37 01.38 +30 01 20.9 19.6   704 – Lincoln Laboratory ETS, New Mexico MPS 181118
2001 12 22.24474 03 37 01.01 +30 01 14.8 20.1   704 – Lincoln Laboratory ETS, New Mexico MPS 181118
2001 12 22.25978 03 37 00.55 +30 01 08.5 19.4   704 – Lincoln Laboratory ETS, New Mexico MPS 181118
2001 12 22.27483 03 37 00.10 +30 01 02.3 19.9   704 – Lincoln Laboratory ETS, New Mexico MPS 181118
2002 01 08.17507 03 35 00.85 +28 22 08.7 20.7   704 – Lincoln Laboratory ETS, New Mexico MPS 181118
2002 01 08.20665 03 35 01.11 +28 21 59.4 20.1   704 – Lincoln Laboratory ETS, New Mexico MPS 181118
2002 01 08.22224 03 35 01.28 +28 21 54.9 20.0   704 – Lincoln Laboratory ETS, New Mexico MPS 181118
2003 05 06.25349 12 55 09.69 -16 29 23.4 21.6 V 291 – LPL/Spacewatch II MPS 181118
2003 05 06.26077 12 55 09.39 -16 29 21.3 21.7 V 291 – LPL/Spacewatch II MPS 181118
2003 05 06.26810 12 55 09.09 -16 29 19.2 21.1 V 291 – LPL/Spacewatch II MPS 181118
2005 10 01.33462 01 15 50.36 +19 21 11.8 19.7 V 703 – Catalina Sky Survey MPS 144441
2005 10 01.34382 01 15 49.86 +19 21 10.8 19.4 V 703 – Catalina Sky Survey MPS 144441
2005 10 01.35302 01 15 49.35 +19 21 09.9 19.2 V 703 – Catalina Sky Survey MPS 144441
2005 10 01.36221 01 15 48.85 +19 21 09.9 19.7 V 703 – Catalina Sky Survey MPS 144441
2005 10 03.27086 01 14 08.79 +19 18 04.9 19.3   704 – Lincoln Laboratory ETS, New Mexico MPS 144441
2005 10 03.28201 01 14 08.19 +19 18 03.9 19.4   704 – Lincoln Laboratory ETS, New Mexico MPS 144441
2005 10 03.29278 01 14 07.52 +19 18 02.2 19.4   704 – Lincoln Laboratory ETS, New Mexico MPS 144441
2005 10 03.30358 01 14 06.96 +19 18 01.1 19.3   704 – Lincoln Laboratory ETS, New Mexico MPS 144441
2005 10 05.25177 01 12 21.59 +19 14 06.4 18.4   704 – Lincoln Laboratory ETS, New Mexico MPS 144441
2005 10 05.26276 01 12 20.90 +19 14 04.5 19.3   704 – Lincoln Laboratory ETS, New Mexico MPS 144441
2005 10 05.27375 01 12 20.32 +19 14 03.2 19.5   704 – Lincoln Laboratory ETS, New Mexico MPS 144441
2005 10 05.28475 01 12 19.63 +19 14 02.1 18.9   704 – Lincoln Laboratory ETS, New Mexico MPS 144441
2005 10 05.29575 01 12 19.04 +19 14 00.5 19.1   704 – Lincoln Laboratory ETS, New Mexico MPS 144441
2005 10 08.25044 01 09 34.70 +19 06 33.7 18.9   704 – Lincoln Laboratory ETS, New Mexico MPS 144441
2005 10 08.25515 01 09 34.47 +19 06 32.6 19.2   704 – Lincoln Laboratory ETS, New Mexico MPS 144441
2005 10 08.26127 01 09 34.06 +19 06 32.4 19.6   704 – Lincoln Laboratory ETS, New Mexico MPS 144441
2005 10 08.26620 01 09 33.70 +19 06 31.5 19.4   704 – Lincoln Laboratory ETS, New Mexico MPS 144441
2005 10 08.27231 01 09 33.41 +19 06 30.5 19.3   704 – Lincoln Laboratory ETS, New Mexico MPS 144441
2005 10 08.27702 01 09 33.09 +19 06 31.3 19.3   704 – Lincoln Laboratory ETS, New Mexico MPS 144441
2005 10 08.28314 01 09 32.76 +19 06 28.1 19.3   704 – Lincoln Laboratory ETS, New Mexico MPS 144441
2005 10 08.28785 01 09 32.45 +19 06 28.4 19.1   704 – Lincoln Laboratory ETS, New Mexico MPS 144441
2005 10 08.29398 01 09 32.17 +19 06 27.0 18.9   704 – Lincoln Laboratory ETS, New Mexico MPS 144441
2005 10 08.29871 01 09 31.80 +19 06 26.8 19.4   704 – Lincoln Laboratory ETS, New Mexico MPS 144441
2005 10 10.30910 01 07 37.88 +19 00 23.5 19.1 R 699 – Lowell Observatory-LONEOS MPS 144441
2005 10 10.33651 01 07 36.18 +19 00 19.0   699 – Lowell Observatory-LONEOS MPS 144441
2005 10 10.36393 01 07 34.57 +19 00 12.6   699 – Lowell Observatory-LONEOS MPS 144441
2005 10 10.39135 01 07 32.97 +19 00 08.5   699 – Lowell Observatory-LONEOS MPS 144441
2005 10 12.27136 01 05 45.67 +18 53 50.0 19.2   704 – Lincoln Laboratory ETS, New Mexico MPS 146226
2005 10 12.28223 01 05 45.03 +18 53 46.8 19.4   704 – Lincoln Laboratory ETS, New Mexico MPS 146226
2005 10 12.29314 01 05 44.39 +18 53 45.2 19.4   704 – Lincoln Laboratory ETS, New Mexico MPS 146226
2005 10 29.23846 00 50 29.43 +17 35 37.3 19.6 V 703 – Catalina Sky Survey MPS 147628
2005 10 29.24793 00 50 28.96 +17 35 34.0 19.7 V 703 – Catalina Sky Survey MPS 147628
2005 10 29.25744 00 50 28.50 +17 35 31.2 19.1 V 703 – Catalina Sky Survey MPS 147628
2005 10 29.26707 00 50 28.10 +17 35 29.1 19.2 V 703 – Catalina Sky Survey MPS 147628
2005 12 24.16127 00 52 24.24 +15 05 02.3 21.2 V 703 – Catalina Sky Survey MPS 159014
2005 12 24.17020 00 52 24.63 +15 05 00.8 20.1 V 703 – Catalina Sky Survey MPS 159014
2005 12 24.17912 00 52 24.99 +15 05 02.3 20.5 V 703 – Catalina Sky Survey MPS 159014
2005 12 24.18806 00 52 25.57 +15 05 00.7 21.1 V 703 – Catalina Sky Survey MPS 159014
2007 03 21.33684 11 44 50.67 -06 53 14.8 19.5   704 – Lincoln Laboratory ETS, New Mexico MPS 204609
2007 03 21.34741 11 44 50.07 -06 53 11.2 20.0   704 – Lincoln Laboratory ETS, New Mexico MPS 204609
2007 03 21.35817 11 44 49.43 -06 53 08.3 20.1   704 – Lincoln Laboratory ETS, New Mexico MPS 204609
2009 08 19.21945 23 25 43.22 +01 53 43.6 20.8 V 691 – Steward Observatory, Kitt Peak-Spacewatch MPS 291748
2009 08 19.23783 23 25 42.50 +01 53 43.2 20.7 V 691 – Steward Observatory, Kitt Peak-Spacewatch MPS 291748
2009 08 19.25598 23 25 41.71 +01 53 42.8 20.8 V 691 – Steward Observatory, Kitt Peak-Spacewatch MPS 291748
2009 09 14.33807 23 03 20.88 +00 55 51.2 20.9 V 703 – Catalina Sky Survey MPS 295010
2009 09 14.34220 23 03 20.70 +00 55 49.2 19.4 V 703 – Catalina Sky Survey MPS 295010
2009 09 14.34626 23 03 20.52 +00 55 49.4 20.0 V 703 – Catalina Sky Survey MPS 295010
2009 09 14.35044 23 03 20.30 +00 55 48.6 19.3 V 703 – Catalina Sky Survey MPS 295010
2010 11 13.48076 09 56 25.54 +14 27 51.4 21.0 V G96 – Mt. Lemmon Survey MPS 357426
2010 11 13.48714 09 56 25.98 +14 27 48.7 21.3 V G96 – Mt. Lemmon Survey MPS 357426
2010 11 13.49348 09 56 26.44 +14 27 45.7 20.4 V G96 – Mt. Lemmon Survey MPS 357426
2010 11 13.49983 09 56 26.91 +14 27 42.4 20.6 V G96 – Mt. Lemmon Survey MPS 357426
2010 12 11.44201 10 22 02.31 +11 06 40.9 20.9 V G96 – Mt. Lemmon Survey MPS 358899
2010 12 11.45006 10 22 02.56 +11 06 37.9 21.0 V G96 – Mt. Lemmon Survey MPS 358899
2010 12 11.45824 10 22 02.85 +11 06 34.8 21.2 V G96 – Mt. Lemmon Survey MPS 358899
2010 12 11.46633 10 22 03.14 +11 06 32.1 21.0 V G96 – Mt. Lemmon Survey MPS 358899
2011 01 04.47651 10 27 59.68 +09 20 31.8 20.5 V G96 – Mt. Lemmon Survey MPS 363349
2011 01 04.48165 10 27 59.65 +09 20 30.7 20.7 V G96 – Mt. Lemmon Survey MPS 363349
2011 01 04.48694 10 27 59.61 +09 20 29.9 20.6 V G96 – Mt. Lemmon Survey MPS 363349
2011 01 04.49223 10 27 59.54 +09 20 28.5 20.6 V G96 – Mt. Lemmon Survey MPS 363349
2011 01 15.49722 10 24 46.65 +08 59 39.1 20.4 V G96 – Mt. Lemmon Survey MPS 368478
2011 01 15.50514 10 24 46.40 +08 59 38.9 20.2 V G96 – Mt. Lemmon Survey MPS 368478
2011 01 15.51322 10 24 46.22 +08 59 38.3 20.1 V G96 – Mt. Lemmon Survey MPS 368478
2011 01 15.52134 10 24 45.93 +08 59 37.8 20.4 V G96 – Mt. Lemmon Survey MPS 368478
